TimeHST,TemperatureF,Dew PointF,Humidity,Sea Level PressureIn,VisibilityMPH,Wind Direction,Wind SpeedMPH,Gust SpeedMPH,PrecipitationIn,Events,Conditions,WindDirDegrees,DateUTC
12:53 AM,71.1,68.0,90,30.06,10.0,WSW,5.8,-,N/A,,Mostly Cloudy,240,2013-11-03 10:53:00
1:53 AM,70.0,66.9,90,30.04,10.0,WSW,6.9,-,N/A,,Mostly Cloudy,240,2013-11-03 11:53:00
2:53 AM,70.0,66.9,90,30.03,10.0,Variable,3.5,-,0.00,Rain,Light Rain,0,2013-11-03 12:53:00
3:00 AM,70.0,66.9,90,30.04,10.0,SSW,3.5,-,0.00,,Mostly Cloudy,210,2013-11-03 13:00:00
3:24 AM,69.1,66.9,93,30.04,10.0,SW,6.9,-,0.01,,Scattered Clouds,230,2013-11-03 13:24:00
3:53 AM,68.0,64.9,90,30.04,10.0,SW,6.9,-,0.01,,Scattered Clouds,230,2013-11-03 13:53:00
4:53 AM,68.0,66.0,93,30.03,10.0,WSW,8.1,-,0.00,,Partly Cloudy,240,2013-11-03 14:53:00
5:53 AM,69.1,64.9,87,30.05,10.0,SW,6.9,-,0.00,,Mostly Cloudy,220,2013-11-03 15:53:00
6:53 AM,69.1,66.0,90,30.06,10.0,SW,3.5,-,N/A,,Scattered Clouds,230,2013-11-03 16:53:00
7:53 AM,72.0,66.9,84,30.07,10.0,WSW,3.5,-,N/A,,Partly Cloudy,240,2013-11-03 17:53:00
8:53 AM,75.0,70.0,84,30.09,10.0,NW,4.6,-,0.03,,Partly Cloudy,310,2013-11-03 18:53:00
9:53 AM,80.1,69.1,69,30.09,10.0,NNW,8.1,-,N/A,,Clear,330,2013-11-03 19:53:00
10:53 AM,81.0,68.0,65,30.07,10.0,NNW,6.9,-,N/A,,Partly Cloudy,340,2013-11-03 20:53:00
11:53 AM,80.1,69.1,69,30.04,10.0,North,10.4,-,0.00,,Scattered Clouds,350,2013-11-03 21:53:00
12:53 PM,81.0,69.1,67,30.02,10.0,North,5.8,-,N/A,,Partly Cloudy,10,2013-11-03 22:53:00
1:39 PM,79.0,69.1,72,30.01,10.0,NNE,9.2,-,0.00,,Mostly Cloudy,20,2013-11-03 23:39:00
1:53 PM,79.0,69.1,72,30.00,10.0,NE,10.4,-,0.00,,Scattered Clouds,40,2013-11-03 23:53:00
2:53 PM,77.0,70.0,79,29.97,10.0,NE,5.8,-,0.01,Rain,Light Rain,50,2013-11-04 00:53:00
3:53 PM,78.1,68.0,71,30.00,10.0,NE,6.9,-,0.00,,Mostly Cloudy,50,2013-11-04 01:53:00
4:53 PM,77.0,68.0,74,29.99,10.0,NNE,4.6,-,N/A,,Overcast,30,2013-11-04 02:53:00
5:53 PM,75.9,66.9,74,30.00,10.0,Calm,Calm,-,0.00,Rain,Light Rain,0,2013-11-04 03:53:00
6:08 PM,75.9,69.1,79,30.01,10.0,North,6.9,-,0.00,,Mostly Cloudy,350,2013-11-04 04:08:00
6:20 PM,75.9,68.0,76,30.02,10.0,NNW,3.5,-,0.00,,Mostly Cloudy,340,2013-11-04 04:20:00
6:33 PM,75.0,69.1,82,30.01,10.0,Calm,Calm,-,0.00,,Overcast,0,2013-11-04 04:33:00
6:53 PM,73.9,69.1,85,30.01,10.0,WNW,5.8,-,0.00,,Mostly Cloudy,300,2013-11-04 04:53:00
7:53 PM,73.0,68.0,84,30.04,10.0,West,5.8,-,N/A,,Overcast,270,2013-11-04 05:53:00
8:32 PM,72.0,68.0,87,30.06,10.0,South,3.5,-,0.00,Rain,Light Rain,170,2013-11-04 06:32:00
8:53 PM,71.1,68.0,90,30.05,10.0,South,6.9,-,0.00,,Mostly Cloudy,180,2013-11-04 06:53:00
9:05 PM,71.1,68.0,90,30.05,10.0,SSW,5.8,-,N/A,,Mostly Cloudy,210,2013-11-04 07:05:00
9:53 PM,71.1,68.0,90,30.04,10.0,SW,4.6,-,N/A,,Mostly Cloudy,220,2013-11-04 07:53:00
10:25 PM,72.0,69.1,91,30.05,7.0,WSW,6.9,-,0.04,Rain,Light Rain,240,2013-11-04 08:25:00
10:53 PM,73.0,69.1,87,30.05,10.0,Variable,4.6,-,0.05,,Overcast,0,2013-11-04 08:53:00
11:02 PM,73.0,68.0,84,30.04,10.0,West,8.1,-,N/A,,Mostly Cloudy,270,2013-11-04 09:02:00
11:53 PM,70.0,68.0,93,30.04,10.0,SW,8.1,-,0.10,Rain,Light Rain,230,2013-11-04 09:53:00